Location: ????????
(60.4333°N, 46.4710°E)
Time: 18:15:10
(UTC+00:00)

Cosmos 1656 Rocket - Pass Details

Date: 25 November 2020
Orbit: 796 x 846 km, 71.1° (Epoch: 17 January)

Event Time Altitude Azimuth Distance (km) Brightness Sun altitude
Rises 13:59:27 0° 311° (NW) 3,420 7.3 -13.1°
Reaches altitude 10° 14:02:03 10° 319° (NW) 2,481 6.4 -13.4°
Maximum altitude 14:07:28 43° 30° (NNE) 1,184 4.1 -14.0°
Enters shadow 14:11:07 19° 93° (E) 1,885 4.9 -14.5°
